User: anonymous   Login
Location: Unspecified
(0.0000°N, 0.0000°E)
Time: 11:24:56
(UTC+01:00)
Language:

Ariane H10 - Orbit

View from above orbital plane
View from above orbital plane
View from above satellite
View from above satellite

Ground track
Ground track

The orbit data is extracted from the following two-line orbital elements,

1 19622U 88098B   15024.18272443  .00001799  00000-0  76425-3 0  9753
2 19622 003.9710 033.8152 6450658 157.7103 345.6796 03.36304534274398
Epoch (UTC): 24 January 2015 04:23:07
Eccentricity: 0.6450658
inclination: 3.9710°
perigee height: 301 km
apogee height: 24579 km
right ascension of ascending node: 33.8152°
argument of perigee: 157.7103°
revolutions per day: 3.36304534
mean anomaly at epoch: 345.6796°
orbit number at epoch: 27439

The dashed part of the orbit path shows where the satellite is in the earth's shadow,  

DLR